Location: Bottenau
(48.5138°N, 8.0462°E)
Time: 20:36:25
(UTC+00:00)

Meteor 2-3 Rocket - Pass Details

Date: 18 April 2021
Orbit: 840 x 887 km, 81.2° (Epoch: 17 May)

Event Time Altitude Azimuth Distance (km) Brightness Sun altitude
Rises 20:37:41 0° 348° (NNW) 3,495 7.9 -19.6°
Reaches altitude 10° 20:40:09 10° 348° (NNW) 2,547 7.0 -19.9°
Maximum altitude 20:45:57 90° 71° (ENE) 880 3.7 -20.6°
Enters shadow 20:48:27 36° 169° (S) 1,351 4.3 -20.8°
